This is the latest recevied weather packets stored in our database for station/object KC8PTQ. If no packets are shown the sender has not sent any weather packets the latest 10 day(s).
| Time | Temp. | Humidity | Pressure | Rain* | Wind** | Luminosity | Snow |
|---|---|---|---|---|---|---|---|
| 1778098561 | 12.78° C | 55% | 1013.3 hPa | 0 mm | - | 122 W/m² | - |
| 1778098257 | 12.78° C | 56% | 1013.3 hPa | 0 mm | - | 101 W/m² | - |
| 1778097954 | 12.78° C | 60% | 1013.2 hPa | 0 mm | - | 151 W/m² | - |
| 1778097651 | 12.78° C | 56% | 1013.2 hPa | 0 mm | - | 192 W/m² | - |
| 1778097347 | 12.22° C | 60% | 1013 hPa | 0 mm | - | 187 W/m² | - |
| 1778097044 | 12.78° C | 59% | 1013.3 hPa | 0 mm | - | 155 W/m² | - |
| 1778096742 | 12.78° C | 55% | 1013.5 hPa | 0 mm | - | 143 W/m² | - |
| 1778096437 | 12.78° C | 58% | 1013 hPa | 0 mm | - | 191 W/m² | - |
| 1778096135 | 12.78° C | 56% | 1013.4 hPa | 0 mm | - | 134 W/m² | - |
| 1778095832 | 12.22° C | 59% | 1013.4 hPa | 0 mm | - | 141 W/m² | - |
| 1778095529 | 12.78° C | 57% | 1012.9 hPa | 0 mm | - | 119 W/m² | - |
| 1778095225 | 12.78° C | 57% | 1012.9 hPa | 0 mm | - | 125 W/m² | - |
| 1778094922 | 12.78° C | 58% | 1013.2 hPa | 0 mm | - | 120 W/m² | - |
| 1778094618 | 12.78° C | 55% | 1013 hPa | 0 mm | - | 121 W/m² | - |
| 1778094315 | 12.78° C | 57% | 1013.3 hPa | 0 mm | - | 113 W/m² | - |
| 1778094012 | 12.78° C | 60% | 1013.3 hPa | 0 mm | - | 117 W/m² | - |
| 1778093709 | 13.89° C | 54% | 1013.7 hPa | 0 mm | - | 135 W/m² | - |
| 1778093406 | 13.33° C | 54% | 1013.5 hPa | 0 mm | - | 302 W/m² | - |
| 1778093103 | 13.33° C | 56% | 1013.3 hPa | 0 mm | - | 261 W/m² | - |
| 1778092800 | 13.33° C | 52% | 1013.5 hPa | 0 mm | - | 224 W/m² | - |
| 1778092495 | 13.89° C | 57% | 1013.3 hPa | 0 mm | - | 177 W/m² | - |
| 1778092187 | 13.89° C | 53% | 1013.2 hPa | 0 mm | - | 357 W/m² | - |
| 1778091885 | 13.89° C | 54% | 1013.4 hPa | 0 mm | - | 245 W/m² | - |
| 1778091582 | 15° C | 51% | 1013 hPa | 0 mm | - | 173 W/m² | - |
| 1778091280 | 14.44° C | 53% | 1013.2 hPa | 0 mm | - | 341 W/m² | - |
* Rain latest hour (hover to see other rain measurements)
** Current wind speed in m/s (hover to see current wind gust speed)